Luxor, Egypt

2:21 AM EET on July 28, 2017 (GMT +0200)
Luxor

Weather History for HELX - October, 2013

Change the Weather History Date:

Wednesday, October 16, 2013

  Actual Average Record
Temperature  
Mean Temperature 78 °F -  
Max Temperature 93 °F 86 °F 105 °F (2010)
Min Temperature 64 °F 59 °F 60 °F (1996)
Cooling Degree Days 14    
Growing Degree Days 28 (Base 50)    
Moisture  
Dew Point 50 °F    
Average Humidity 37    
Maximum Humidity 50    
Minimum Humidity 18    
Precipitation  
Precipitation 0.00 in 0.00 in - ()
Sea Level Pressure  
Sea Level Pressure 29.89 in    
Wind  
Wind Speed 1 mph ()    
Max Wind Speed 5 mph    
Max Gust Speed -    
Visibility 6.0 miles    
Events      
Averages and records for this station are not official NWS values.
T = Trace of Precipitation, MM = Missing Value Source: Averaged Metar Reports

Daily Weather History Graph

Daily Weather History Graph

Search for Another Location

Airport or City:

Trip Planner

Search our weather history database for the weather conditions in past years. The results will help you decide how hot, cold, wet, or windy it might be!

Date:

Astronomy

Oct. 16, 2013 Rise Set
Actual Time 5:48 AM EET 5:20 PM EET
Civil Twilight 5:25 AM EET 5:43 PM EET
Nautical Twilight 4:58 AM EET 6:10 PM EET
Astronomical Twilight 4:31 AM EET 6:37 PM EET
Moon 3:37 PM EET (10/16) 3:09 AM EET (10/16)
Length of Visible Light 12h 18m
Length of Day
11h 32m
Waxing Gibbous, 92% of the Moon is Illuminated
Oct 16
Waxing Gibbous
Oct 19
Full
Oct 27
Last Quarter
Nov 3
New
Nov 10
First Quarter

Hourly Weather History & Observations

Time (EET) Temp. Heat Index Dew Point Humidity Pressure Visibility Wind Dir Wind Speed Gust Speed Precip Events Conditions
12:00 AM 73.4 °F - 50.0 °F 44% 29.92 in - Calm Calm - N/A   Clear
1:00 AM 71.6 °F - 51.8 °F 50% 29.92 in - SSW 3.5 mph - N/A   Clear
2:00 AM 71 °F - 47 °F 32% 29.90 in 6 mi Calm Calm - -  
2:00 AM 69.8 °F - 48.2 °F 46% 29.89 in - Calm Calm - N/A   Clear
3:00 AM 69.8 °F - 48.2 °F 46% 29.89 in - Calm Calm - N/A   Clear
4:00 AM 68.0 °F - 46.4 °F 46% 29.89 in - South 2.3 mph - N/A   Clear
5:00 AM 68.0 °F - 46.4 °F 46% 29.89 in - South 2.3 mph - N/A   Clear
6:00 AM 66.2 °F - 46.4 °F 49% 29.92 in - Calm Calm - N/A   Clear
7:00 AM 68.0 °F - 44.6 °F 43% 29.92 in - Calm Calm - N/A   Clear
8:00 AM 74 °F - 51 °F 34% 29.95 in 6 mi Calm Calm - -  
8:00 AM 73.4 °F - 51.8 °F 47% 29.95 in - Calm Calm - N/A   Clear
9:00 AM 80.6 °F - 50.0 °F 34% 29.95 in - Calm Calm - N/A   Clear
9:10 AM 80.6 °F - 50.0 °F 34% 29.95 in - Calm Calm - N/A   Clear
10:00 AM 82.4 °F - 51.8 °F 35% 29.95 in - Calm Calm - N/A   Clear
11:00 AM 84.2 °F - 51.8 °F 33% 29.92 in - West 3.5 mph - N/A   Clear
12:00 PM 89.6 °F 87.7 °F 55.4 °F 31% 29.89 in - West 3.5 mph - N/A   Clear
1:00 PM 91.4 °F 89.1 °F 53.6 °F 28% 29.86 in - West 4.6 mph - N/A   Clear
2:00 PM 92 °F - 53 °F 18% 29.84 in 6 mi West 3.5 mph - -  
2:00 PM 91.4 °F 89.1 °F 53.6 °F 28% 29.86 in - West 3.5 mph - N/A   Clear
3:00 PM 93.2 °F 90.8 °F 53.6 °F 26% 29.83 in - Calm Calm - N/A   Clear
4:00 PM 93.2 °F - 51.8 °F 24% 29.83 in - Calm Calm - N/A   Clear
5:00 PM 89.6 °F - 50.0 °F 26% 29.83 in - Calm Calm - N/A   Clear
6:00 PM 82.4 °F - 51.8 °F 35% 29.83 in - WSW 3.5 mph - N/A   Clear
7:00 PM 78.8 °F - 55.4 °F 44% 29.86 in - WNW 4.6 mph - N/A   Clear
8:00 PM 78 °F - 51 °F 28% 29.86 in 6 mi WNW 2.3 mph - -   Scattered Clouds
8:00 PM 78.8 °F - 51.8 °F 39% 29.86 in - WNW 2.3 mph - N/A   Clear
9:00 PM 78.8 °F - 48.2 °F 34% 29.89 in - Calm Calm - N/A   Clear
10:00 PM 75.2 °F - 48.2 °F 38% 29.89 in - Calm Calm - N/A   Clear
11:00 PM 73.4 °F - 50.0 °F 44% 29.86 in - South 2.3 mph - N/A   Clear